Location: Cueva de Ratón
(10.1013°N, 67.6606°W)
Time: 07:16:08
(UTC+00:00)

Meteor 1-25 Rocket - Pass Details

Date: 02 December 2023
Orbit: 838 x 889 km, 81.2° (Epoch: 27 February)

Event Time Altitude Azimuth Distance (km) Brightness Sun altitude
Rises 23:16:58 0° 352° (N) 3,401 7.2 -16.8°
Reaches altitude 10° 23:19:23 10° 351° (N) 2,460 6.5 -17.4°
Maximum altitude 23:24:57 79° 266° (W) 857 4.3 -18.7°
Drops below altitude 10° 23:30:29 10° 179° (S) 2,446 6.8 -20.0°
Sets 23:32:53 0° 178° (S) 3,380 7.6 -20.5°
